FW5161 Weather Reports


Display with metric or nautical units.
time (UTC)temp
F
wind
direction
speed
MPH
gust
MPH
rain 1hr
in
rain 24hr
in
rain mn
in
humidity
%
barometer
mb
20260505181455 61 320 3.0 6.0 0.00 0.00 0.00 76 1014.3
20260505180949 61 307 3.0 6.0 0.00 0.00 0.00 77 1014.3
20260505180445 61 335 4.0 9.0 0.00 0.00 0.00 78 1014.2
20260505175945 60 321 3.0 9.0 0.00 0.00 0.00 76 1014.3
20260505175445 61 329 4.0 9.0 0.00 0.00 0.00 78 1014.3
20260505174945 60 317 4.0 9.0 0.00 0.00 0.00 79 1014.4
20260505174445 59 321 3.0 7.0 0.00 0.00 0.00 78 1014.3
20260505173945 60 325 3.0 8.0 0.00 0.00 0.00 78 1014.3
20260505173444 59 350 3.0 8.0 0.00 0.00 0.00 78 1014.2
20260505173220 58 305 3.0 10.0 0.00 0.00 0.00 80 1014.3
20260505172446 58 335 3.0 10.0 0.00 0.00 0.00 79 1014.1
20260505171943 58 354 3.0 8.0 0.00 0.00 0.00 79 1014.1
20260505171441 58 25 3.0 8.0 0.00 0.00 0.00 80 1014.1
20260505170941 58 311 4.0 10.0 0.00 0.00 0.00 79 1014.1
20260505170437 58 332 5.0 10.0 0.00 0.00 0.00 80 1014.0
20260505165937 57 336 4.0 10.0 0.00 0.00 0.00 81 1014.1
20260505165709 57 302 3.0 8.0 0.00 0.00 0.00 80 1013.9
20260505165209 56 345 5.0 12.0 0.00 0.00 0.00 80 1014.0
20260505164436 56 121 6.0 14.0 0.00 0.00 0.00 81 1014.0
20260505163937 55 99 7.0 16.0 0.00 0.00 0.00 83 1013.9
20260505163438 54 124 7.0 19.0 0.00 0.00 0.00 83 1013.9
20260505162937 55 243 7.0 22.0 0.00 0.00 0.00 84 1013.9
20260505162437 54 122 8.0 22.0 0.00 0.00 0.00 84 1013.9
20260505162201 54 106 9.0 22.0 0.00 0.00 0.00 84 1013.8
20260505161431 54 150 11.0 27.0 0.00 0.00 0.00 85 1013.8
20260505160931 53 101 11.0 27.0 0.00 0.00 0.00 84 1013.8
20260505160434 53 207 10.0 24.0 0.00 0.00 0.00 85 1013.7
20260505152928 53 91 10.0 24.0 0.00 0.00 0.00 87 1013.5
20260505152431 53 309 11.0 30.0 0.00 0.00 0.00 87 1013.6
20260505151932 53 95 12.0 30.0 0.00 0.00 0.00 88 1013.4
20260505151424 53 205 14.0 29.0 0.00 0.00 0.00 88 1013.3
20260505150411 53 189 12.0 29.0 0.00 0.00 0.00 88 1013.0
20260505140637 53 140 16.0 38.0 0.00 0.00 0.00 85 1012.1
20260505124901 56 137 16.0 32.0 0.00 0.00 0.00 78 1011.2
20260505124401 57 178 16.0 29.0 0.00 0.00 0.00 77 1011.1
20260505124132 57 89 16.0 27.0 0.00 0.00 0.00 76 1011.0
20260505123400 57 145 16.0 27.0 0.00 0.00 0.00 75 1011.3
20260505122401 57 102 16.0 31.0 0.00 0.00 0.00 74 1010.9
20260505121904 58 220 15.0 27.0 0.00 0.00 0.00 72 1010.8
20260505121406 58 110 16.0 29.0 0.00 0.00 0.00 72 1011.0
20260505121134 58 102 15.0 29.0 0.00 0.00 0.00 71 1011.0
20260505120401 58 133 14.0 27.0 0.00 0.00 0.00 70 1010.7
20260505115901 58 135 13.0 27.0 0.00 0.00 0.00 68 1010.9
20260505115401 58 217 14.0 26.0 0.00 0.00 0.00 70 1010.8
20260505114902 58 152 14.0 34.0 0.00 0.00 0.00 69 1010.8
20260505114401 58 137 14.0 34.0 0.00 0.00 0.00 70 1010.8
20260505113901 59 126 15.0 30.0 0.00 0.00 0.00 67 1010.6
20260505113401 59 85 18.0 34.0 0.00 0.00 0.00 65 1010.7
20260505112902 59 114 18.0 34.0 0.00 0.00 0.00 63 1010.7
20260505112401 59 166 19.0 32.0 0.00 0.00 0.00 65 1010.4
20260505111402 60 110 19.0 34.0 0.00 0.00 0.00 61 1010.6
20260505110902 60 116 19.0 34.0 0.00 0.00 0.00 60 1010.3
20260505110626 60 148 19.0 32.0 0.00 0.00 0.00 59 1010.3
20260505101854 61 152 13.0 23.0 0.00 0.00 0.00 60 1009.9
20260505101354 60 122 12.0 24.0 0.00 0.00 0.00 61 1009.9
20260505100854 61 121 11.0 24.0 0.00 0.00 0.00 60 1009.9
20260505100354 61 156 7.0 18.0 0.00 0.00 0.00 60 1009.8
20260505095854 61 91 5.0 14.0 0.00 0.00 0.00 60 1009.8
20260505095354 61 194 4.0 14.0 0.00 0.00 0.00 60 1009.7
20260505094854 61 166 4.0 14.0 0.00 0.00 0.00 60 1009.6
20260505094354 60 220 3.0 10.0 0.00 0.00 0.00 64 1009.6
20260505093849 59 118 2.0 6.0 0.00 0.00 0.00 68 1009.6
20260505093350 58 116 3.0 6.0 0.00 0.00 0.00 71 1009.6
20260505092850 58 85 2.0 5.0 0.00 0.00 0.00 71 1009.7
20260505092350 58 100 1.0 5.0 0.00 0.00 0.00 71 1009.6
20260505091850 58 82 0.0 2.0 0.00 0.00 0.00 71 1009.6
20260505091352 58 81 0.0 2.0 0.00 0.00 0.00 71 1009.6
20260505090852 58 81 1.0 3.0 0.00 0.00 0.00 70 1009.5
20260505090355 59 81 1.0 5.0 0.00 0.00 0.00 70 1009.4
20260505085852 59 82 1.0 5.0 0.00 0.00 0.00 69 1009.5
20260505085346 59 66 1.0 3.0 0.00 0.00 0.00 70 1009.5
20260505084847 59 58 1.0 3.0 0.00 0.00 0.00 69 1009.5
20260505084348 59 324 0.0 2.0 0.00 0.00 0.00 68 1009.4
20260505083842 61 307 2.0 10.0 0.00 0.00 0.00 66 1009.4
20260505083608 63 306 3.0 11.0 0.00 0.00 0.00 63 1009.3
20260505082340 62 219 3.0 9.0 0.00 0.00 0.00 67 1009.2
20260505081839 62 135 2.0 4.0 0.00 0.00 0.00 66 1009.3
20260505081336 62 128 1.0 3.0 0.00 0.00 0.00 66 1009.3
20260505080836 62 178 1.0 3.0 0.00 0.00 0.00 66 1009.2
20260505080336 62 78 1.0 3.0 0.00 0.00 0.00 65 1009.2
20260505075834 62 78 0.0 3.0 0.00 0.00 0.00 65 1009.1
20260505075329 63 78 1.0 3.0 0.00 0.00 0.00 64 1009.2
20260505074829 63 78 1.0 3.0 0.00 0.00 0.00 64 1009.1
20260505074323 63 78 1.0 3.0 0.00 0.00 0.00 64 1009.0
20260505073817 63 78 1.0 3.0 0.00 0.00 0.00 64 1008.9
20260505073317 63 77 1.0 4.0 0.00 0.00 0.00 63 1008.8
20260505073036 63 77 1.0 4.0 0.00 0.00 0.00 64 1008.8
20260505072314 63 31 1.0 3.0 0.00 0.00 0.00 63 1008.8
20260505071811 64 188 1.0 3.0 0.00 0.00 0.00 62 1008.7
20260505071311 64 190 1.0 3.0 0.00 0.00 0.00 62 1008.6
20260505070808 64 87 1.0 3.0 0.00 0.00 0.00 62 1008.5
20260505070537 65 87 1.0 3.0 0.00 0.00 0.00 61 1008.5
20260505070031 65 87 1.0 2.0 0.00 0.00 0.00 60 1008.5
20260505065304 65 87 1.0 3.0 0.00 0.00 0.00 60 1008.4
20260505064802 65 87 1.0 3.0 0.00 0.00 0.00 60 1008.3
20260505064302 65 87 0.0 3.0 0.00 0.00 0.00 60 1008.3
20260505063801 65 87 0.0 0.0 0.00 0.00 0.00 60 1008.3
20260505063304 65 87 0.0 0.0 0.00 0.00 0.00 60 1008.3
20260505062804 65 87 0.0 0.0 0.00 0.00 0.00 60 1008.3
20260505062301 65 87 0.0 1.0 0.00 0.00 0.00 59 1008.2
20260505061801 66 87 1.0 2.0 0.00 0.00 0.00 59 1008.2
20260505061542 66 87 2.0 2.0 0.00 0.00 0.00 59 1008.2
20260505060801 66 87 1.0 2.0 0.00 0.00 0.00 59 1008.2
20260505060301 66 87 1.0 2.0 0.00 0.00 0.00 57 1008.2
20260505055801 66 87 1.0 3.0 0.00 0.00 0.00 57 1008.2
20260505055301 67 87 1.0 3.0 0.00 0.00 0.00 57 1008.1
20260505055039 67 87 2.0 3.0 0.00 0.00 0.00 56 1008.1
20260505054301 66 87 2.0 3.0 0.00 0.00 0.00 55 1008.1
20260505053805 66 87 2.0 3.0 0.00 0.00 0.00 55 1008.2
20260505053307 67 87 2.0 3.0 0.00 0.00 0.00 54 1008.2
20260505053035 67 87 1.0 3.0 0.00 0.00 0.00 55 1008.1
20260505052300 67 87 1.0 5.0 0.00 0.00 0.00 55 1008.1
20260505052036 68 87 1.0 5.0 0.00 0.00 0.00 55 1008.0
20260505051301 68 87 1.0 2.0 0.00 0.00 0.00 53 1008.0
20260505050801 69 87 1.0 3.0 0.00 0.00 0.00 52 1008.1
20260505050526 69 87 2.0 3.0 0.00 0.00 0.00 52 1007.9
20260505041739 68 64 2.0 3.0 0.00 0.00 0.00 51 1007.7
20260505041244 68 64 1.0 3.0 0.00 0.00 0.00 52 1007.7
20260505040739 69 64 0.0 2.0 0.00 0.00 0.00 51 1007.7
20260505040234 69 64 1.0 3.0 0.00 0.00 0.00 52 1007.6
20260505035732 69 64 2.0 3.0 0.00 0.00 0.00 51 1007.6
20260505035230 69 64 2.0 3.0 0.00 0.00 0.00 50 1007.5
20260505034730 69 64 2.0 3.0 0.00 0.00 0.00 50 1007.4
20260505034230 70 64 2.0 3.0 0.00 0.00 0.00 51 1007.4
20260505033729 70 64 2.0 3.0 0.00 0.00 0.00 51 1007.4
20260505033229 70 58 2.0 3.0 0.00 0.00 0.00 50 1007.3
20260505032729 71 57 2.0 3.0 0.00 0.00 0.00 50 1007.3
20260505032229 71 57 2.0 3.0 0.00 0.00 0.00 49 1007.3
20260505031728 71 56 1.0 3.0 0.00 0.00 0.00 49 1007.3
20260505031229 72 56 0.0 3.0 0.00 0.00 0.00 48 1007.3
20260505030728 73 56 1.0 3.0 0.00 0.00 0.00 48 1007.2
20260505030237 72 53 2.0 3.0 0.00 0.00 0.00 47 1007.2
20260505025732 73 51 1.0 3.0 0.00 0.00 0.00 47 1007.2
20260505025231 74 339 1.0 2.0 0.00 0.00 0.00 46 1007.3
20260505024724 76 333 1.0 4.0 0.00 0.00 0.00 43 1007.2
20260505024225 76 332 1.0 4.0 0.00 0.00 0.00 43 1007.2
20260505023724 77 328 1.0 3.0 0.00 0.00 0.00 42 1007.2
20260505023225 78 328 2.0 3.0 0.00 0.00 0.00 42 1007.2
20260505022723 77 327 2.0 3.0 0.00 0.00 0.00 42 1007.3
20260505022222 78 328 2.0 3.0 0.00 0.00 0.00 39 1007.4
20260505021722 78 317 2.0 3.0 0.00 0.00 0.00 39 1007.4
20260505021454 78 316 2.0 4.0 0.00 0.00 0.00 38 1007.4
20260505020720 78 316 3.0 5.0 0.00 0.00 0.00 39 1007.4
20260505020452 79 312 2.0 5.0 0.00 0.00 0.00 36 1007.5
20260505015723 80 311 2.0 5.0 0.00 0.00 0.00 37 1007.5
20260505015220 80 276 3.0 8.0 0.00 0.00 0.00 37 1007.6
20260505014720 80 251 4.0 8.0 0.00 0.00 0.00 37 1007.6
20260505014221 80 332 3.0 9.0 0.00 0.00 0.00 36 1007.6
20260505013720 80 309 2.0 9.0 0.00 0.00 0.00 37 1007.7
20260505013221 80 326 3.0 8.0 0.00 0.00 0.00 40 1007.6
20260505012724 80 308 4.0 9.0 0.00 0.00 0.00 38 1007.7
20260505012217 79 341 4.0 9.0 0.00 0.00 0.00 40 1007.7
20260505011716 79 343 3.0 6.0 0.00 0.00 0.00 40 1007.7
20260505011216 80 301 3.0 10.0 0.00 0.00 0.00 35 1007.8
20260505010715 80 359 4.0 10.0 0.00 0.00 0.00 34 1007.8
20260505010216 80 299 4.0 9.0 0.00 0.00 0.00 34 1007.8
20260505005716 79 260 4.0 7.0 0.00 0.00 0.00 34 1007.9
20260505004714 81 318 4.0 10.0 0.00 0.00 0.00 34 1007.9
20260505004214 80 315 3.0 8.0 0.00 0.00 0.00 35 1008.0
20260505003714 80 316 4.0 8.0 0.00 0.00 0.00 39 1008.0
20260505003210 80 349 4.0 8.0 0.00 0.00 0.00 38 1008.0
20260505002938 80 311 3.0 5.0 0.00 0.00 0.00 40 1008.0
20260505002210 79 359 4.0 6.0 0.00 0.00 0.00 41 1008.0
20260505001710 79 316 4.0 6.0 0.00 0.00 0.00 41 1008.1
20260505001209 81 309 4.0 6.0 0.00 0.00 0.00 41 1008.2
20260505000715 80 309 4.0 7.0 0.00 0.00 0.00 42 1008.1
20260504235713 81 309 3.0 8.0 0.00 0.00 0.00 41 1008.2
20260504235210 82 316 3.0 7.0 0.00 0.00 0.00 38 1008.2
20260504234936 81 72 3.0 6.0 0.00 0.00 0.00 40 1008.2
20260504234210 82 334 3.0 5.0 0.00 0.00 0.00 36 1008.3
20260504233710 82 315 4.0 6.0 0.00 0.00 0.00 38 1008.3
20260504233434 82 314 4.0 7.0 0.00 0.00 0.00 39 1008.2
20260504232708 81 325 4.0 7.0 0.00 0.00 0.00 39 1008.3
20260504232435 81 319 4.0 6.0 0.00 0.00 0.00 40 1008.3
20260504231707 82 300 4.0 6.0 0.00 0.00 0.00 41 1008.3
20260504231205 81 326 3.0 5.0 0.00 0.00 0.00 42 1008.3
20260504230926 81 328 3.0 5.0 0.00 0.00 0.00 42 1008.4
20260504230432 80 320 2.0 5.0 0.00 0.00 0.00 42 1008.4
20260504225934 80 309 2.0 5.0 0.00 0.00 0.00 43 1008.6
20260504225202 78 273 3.0 5.0 0.00 0.00 0.00 43 1008.8
20260504224708 80 318 3.0 5.0 0.00 0.00 0.00 43 1008.9
20260504224431 79 342 2.0 5.0 0.00 0.00 0.00 45 1008.9
20260504223924 79 325 2.0 5.0 0.00 0.00 0.00 43 1008.9
20260504223155 78 309 3.0 7.0 0.00 0.00 0.00 43 1008.9
20260504222916 77 302 2.0 7.0 0.00 0.00 0.00 45 1008.9
20260504222153 77 308 2.0 6.0 0.00 0.00 0.00 45 1009.0
20260504221652 77 285 3.0 7.0 0.00 0.00 0.00 45 1009.0
20260504221141 75 273 3.0 8.0 0.00 0.00 0.00 44 1009.0
20260504220639 76 232 3.0 8.0 0.00 0.00 0.00 44 1008.9
20260504220139 76 274 3.0 6.0 0.00 0.00 0.00 41 1009.1
20260504215637 77 266 3.0 5.0 0.00 0.00 0.00 41 1009.1
20260504215138 77 241 3.0 5.0 0.00 0.00 0.00 43 1009.1
20260504214638 76 259 3.0 6.0 0.00 0.00 0.00 42 1009.1
20260504214138 76 169 3.0 8.0 0.00 0.00 0.00 44 1009.0
20260504213900 75 259 3.0 8.0 0.00 0.00 0.00 44 1009.1
20260504213134 76 274 3.0 5.0 0.00 0.00 0.00 42 1009.2
20260504212630 76 299 3.0 5.0 0.00 0.00 0.00 41 1009.3
20260504212129 75 285 3.0 5.0 0.00 0.00 0.00 47 1009.3
20260504211629 74 280 3.0 7.0 0.00 0.00 0.00 46 1009.3
20260504211129 74 285 4.0 8.0 0.00 0.00 0.00 43 1009.3
20260504210630 75 312 4.0 8.0 0.00 0.00 0.00 46 1009.5
20260504210129 75 265 3.0 8.0 0.00 0.00 0.00 46 1009.5
20260504205631 75 285 3.0 8.0 0.00 0.00 0.00 44 1009.4
20260504205130 75 230 3.0 7.0 0.00 0.00 0.00 44 1009.5
20260504204623 74 319 3.0 5.0 0.00 0.00 0.00 46 1009.5
20260504204116 74 312 3.0 5.0 0.00 0.00 0.00 47 1009.6
20260504203610 74 306 3.0 5.0 0.00 0.00 0.00 48 1009.5
20260504203105 74 321 3.0 5.0 0.00 0.00 0.00 48 1009.6
20260504202605 75 315 3.0 5.0 0.00 0.00 0.00 46 1009.5
20260504202335 76 311 3.0 5.0 0.00 0.00 0.00 45 1009.5
20260504201605 75 314 3.0 5.0 0.00 0.00 0.00 47 1009.6
20260504201103 75 330 3.0 5.0 0.00 0.00 0.00 45 1009.7
20260504200604 75 314 4.0 5.0 0.00 0.00 0.00 48 1009.7
20260504200104 75 322 3.0 5.0 0.00 0.00 0.00 47 1009.7
20260504195602 75 308 3.0 5.0 0.00 0.00 0.00 46 1009.7
20260504195103 73 278 2.0 5.0 0.00 0.00 0.00 48 1009.6
20260504194104 74 333 3.0 5.0 0.00 0.00 0.00 48 1009.5
20260504193604 74 320 3.0 4.0 0.00 0.00 0.00 52 1009.6
20260504193325 73 307 2.0 4.0 0.00 0.00 0.00 49 1009.5
20260504192829 74 321 2.0 5.0 0.00 0.00 0.00 51 1009.5
20260504192101 73 305 2.0 5.0 0.00 0.00 0.00 52 1009.5
20260504191601 73 320 2.0 4.0 0.00 0.00 0.00 51 1009.6
20260504191101 72 316 2.0 4.0 0.00 0.00 0.00 53 1009.6
20260504190827 72 312 2.0 4.0 0.00 0.00 0.00 52 1009.7
20260504190059 72 314 2.0 4.0 0.00 0.00 0.00 50 1009.7
20260504185553 72 326 2.0 4.0 0.00 0.00 0.00 53 1009.8
20260504185047 71 321 2.0 4.0 0.00 0.00 0.00 53 1009.8
20260504184547 71 319 2.0 4.0 0.00 0.00 0.00 57 1009.7
20260504184044 70 322 2.0 4.0 0.00 0.00 0.00 57 1009.7
20260504183543 69 319 2.0 4.0 0.00 0.00 0.00 55 1009.6
20260504183044 70 332 2.0 4.0 0.00 0.00 0.00 55 1009.7
20260504182541 70 333 2.0 4.0 0.00 0.00 0.00 57 1009.7
20260504182041 69 318 2.0 4.0 0.00 0.00 0.00 58 1009.8